Flag for U.S.A. Weather past 2 weeks in Metairie, Louisiana, U.S.A.

Now
79 °F

Passing clouds.


Feels Like: 81 °F
Forecast: 76 / 88 °F
Wind: 12 mph from Northeast

Location: New Orleans International Airport

Current Time: Jul 30, 2014 at 2:27:40 AM

Latest Report: Jul 30, 2014 at 1:53 AM


Visibility: 10 mi

Pressure: 30.04 "Hg

Humidity: 60%

Dew point: 64 °F

Location of MetairieLocation

Historic Weather in Metairie — Graph

°F

Metairie temperature yesterday

Maximum temperature yesterday: 89 °F (at 12:53 PM)
Minimum temperature yesterday: 79 °F (at 5:53 AM)
Average temperature yesterday: 84 °F

Past Weeks' High & Low Weather Summary

 TemperatureHumidityPressure
High94 °F (Jul 27, 3:53 PM)97% (Jul 21, 3:53 AM)30.12 "Hg (Jul 21, 3:53 AM)
Low73 °F (Jul 17, 5:53 AM)46% (Jul 16, 5:53 PM)29.92 "Hg (Jul 15, 5:53 PM)
Average82 °F75%30.01 "Hg
* Reported Jul 15 12:53 AM — Jul 30 12:53 AM, Metairie, Weather by CustomWeather, © 2014

Note: Actual official high and low records may vary slightly from our data, if they occured in-between our weather recording intervals... More about our weather records

Advertising

Metairie weather history for previous 24 hours

 ConditionsComfort  
Time TempWeatherWind HumidityBarometerVisibility
12:53 AM
Jul 30
81 °FPassing clouds.16 mph60%30.05 "Hg10 mi
11:53 PM
Jul 29
81 °FPassing clouds.13 mph65%30.05 "Hg10 mi
10:53 PM81 °FPassing clouds.5 mph56%30.04 "Hg10 mi
9:53 PM80 °FPassing clouds.6 mph56%30.03 "Hg10 mi
8:53 PM81 °FPartly sunny.6 mph54%30.02 "Hg10 mi
7:53 PM83 °FPartly sunny.3 mph51%30.01 "Hg10 mi
6:53 PM86 °FBroken clouds.6 mph48%30.01 "Hg10 mi
5:53 PM88 °FBroken clouds.6 mph46%30.02 "Hg10 mi
4:53 PM88 °FPartly sunny.6 mph48%30.03 "Hg10 mi
3:53 PM88 °FPartly sunny.6 mph48%30.03 "Hg10 mi
2:53 PM88 °FPartly sunny.10 mph50%30.04 "Hg10 mi
1:53 PM89 °FPartly sunny.6 mph46%30.06 "Hg10 mi
12:53 PM89 °FPartly sunny.8 mph50%30.07 "Hg10 mi
11:53 AM85 °FPartly sunny.8 mph55%30.09 "Hg10 mi
10:53 AM85 °FBroken clouds.9 mph59%30.09 "Hg10 mi
9:53 AM85 °FOvercast.10 mph59%30.07 "Hg10 mi
8:53 AM81 °FMostly cloudy.7 mph65%30.07 "Hg10 mi
7:53 AM81 °FOvercast.10 mph67%30.07 "Hg10 mi
6:53 AM80 °FOvercast.9 mph67%30.03 "Hg10 mi
5:53 AM79 °FPartly cloudy.9 mph69%30.04 "Hg10 mi
4:53 AM80 °FPartly cloudy.9 mph69%30.02 "Hg10 mi
3:53 AM81 °FPartly cloudy.14 mph67%29.99 "Hg10 mi
2:53 AM83 °FPassing clouds.12 mph65%30.00 "Hg10 mi
Weather by CustomWeather, © 2014

See weather overviewHow to use our weather pages